Find Starlink 1784

NORAD ID: 46687 Int'l Des: 2020-073 Owner: SPXS Country: US Constellation: starlink decayed
LEOCIRCULAR

Re-entered — Jul 13, 2026

3D地球を読み込み中...

About Starlink 1784

Starlink 1784 (NORAD 46687) is a starlink constellation satellite (v1.0) launched Oct 18, 2020 by SPXS of US. It re-entered the atmosphere on Jul 13, 2026. with a mass of 260.00 kg.

高度履歴

Loading altitude history...

軌道要素

1 46687U 20073T 26194.66140128 .09828859 12513-4 43083-3 0 9999
2 46687 53.0158 274.6167 0007717 302.0925 57.9372 16.42938322317814
Epoch: Jul 13, 2026 • Age: 1719 hours

現在のステータス

Position data unavailable
打ち上げ日 Oct 18, 2020
運用期間 5.9 years
落下予定日 Jul 13, 2026
タイプ internet

技術仕様

分類 Payload
質量 260.00 kg
乾燥質量 248.00 kg
長さ 0.20 m
スパン 9.00 m
形状 ? Box + pan
製造者 SPXS
バスタイプ Starlink
フェーズステータス Unknown Transfer Status
所有者/国 SPXS/US

Most Searched